Weather History for Dallas Addison, TX

Change the Weather History Date:

Thursday, January 10, 2013

  Actual Average Record
Temperature  
Mean Temperature 54 °F -  
Max Temperature 59 °F 53 °F 73 °F (2005)
Min Temperature 50 °F 38 °F 26 °F (1997)
Degree Days  
Heating Degree Days 10    
Growing Degree Days 4 (Base 50)    
Moisture  
Dew Point 48 °F    
Average Humidity 82    
Maximum Humidity 100    
Minimum Humidity 59    
Precipitation  
Precipitation 0.03 in - - ()
Sea Level Pressure  
Sea Level Pressure 29.95 in    
Wind  
Wind Speed 10 mph (SSE)    
Max Wind Speed 14 mph    
Max Gust Speed 21 mph    
Visibility 10 miles    
Events      
Averages and records for this station are not official NWS values.
T = Trace of Precipitation, MM = Missing Value Source: NWS Daily Summary

Daily Weather History Graph

Daily Weather History Graph

Search for Another Location

Airport:

Trip Planner

Search our weather history database for the weather conditions in past years. The results will help you decide how hot, cold, wet, or windy it might be!

Date:

Astronomy

Jan. 10, 2013 Rise Set
Actual Time 7:30 AM CST 5:39 PM CST
Civil Twilight 7:03 AM CST 6:06 PM CST
Nautical Twilight 6:33 AM CST 6:36 PM CST
Astronomical Twilight 6:03 AM CST 7:06 PM CST
Moon 6:12 AM CST (1/10) 4:47 PM CST (1/10)
Length of Visible Light 11h 02m
Length of Day
10h 08m
Waning Crescent, 2% of the Moon is Illuminated
Jan 10
Waning Crescent
Jan 11
New
Jan 18
First Quarter
Jan 26
Full
Feb 3
Last Quarter

Hourly Weather History & Observations

Time (CST) Temp. Dew Point Humidity Pressure Visibility Wind Dir Wind Speed Gust Speed Precip Events Conditions
12:15 AM 55.4 °F 55.4 °F 100% 30.00 in 10.0 mi East 13.8 mph - N/A   Overcast
2:15 AM 55.4 °F 55.4 °F 100% 29.96 in 5.0 mi East 12.7 mph 18.4 mph N/A   Overcast
2:35 AM 55.4 °F 55.4 °F 100% 29.96 in 3.0 mi East 12.7 mph 18.4 mph N/A   Drizzle
2:55 AM 55.4 °F 55.4 °F 100% 29.95 in 3.0 mi East 13.8 mph 18.4 mph 0.01 in   Heavy Drizzle
3:15 AM 55.4 °F 55.4 °F 100% 29.96 in 4.0 mi ESE 8.1 mph 16.1 mph 0.01 in   Drizzle
3:55 AM 55.4 °F 55.4 °F 100% 29.95 in 3.0 mi ESE 8.1 mph - 0.02 in   Drizzle
4:15 AM 55.4 °F 55.4 °F 100% 29.94 in 5.0 mi ESE 9.2 mph - N/A   Light Drizzle
4:35 AM 55.4 °F 55.4 °F 100% 29.94 in 10.0 mi SE 5.8 mph - N/A   Overcast
4:55 AM 55.4 °F 55.4 °F 100% 29.92 in 10.0 mi SSE 5.8 mph - N/A   Overcast
6:47 AM 57.2 °F 53.6 °F 88% 29.94 in 5.0 mi South 9.2 mph - N/A   Overcast
7:48 AM 55.4 °F 51.8 °F 88% 29.96 in 13.0 mi South 11.5 mph 16.1 mph N/A   Overcast
8:47 AM 55.4 °F 50.0 °F 82% 29.96 in 13.0 mi SSW 8.1 mph 18.4 mph N/A   Mostly Cloudy
9:48 AM 55.4 °F 48.2 °F 77% 29.94 in 13.0 mi SSW 9.2 mph 16.1 mph N/A   Mostly Cloudy
10:55 AM 57.2 °F 48.2 °F 72% 29.96 in 13.0 mi SSW 10.4 mph - N/A   Overcast
11:47 AM 55.4 °F 46.4 °F 72% 29.94 in 13.0 mi SSW 9.2 mph - N/A   Mostly Cloudy
12:59 PM 57.2 °F 44.6 °F 63% 29.93 in 13.0 mi SSW 12.7 mph 20.7 mph N/A   Mostly Cloudy
1:50 PM 59.0 °F 44.6 °F 59% 29.91 in 13.0 mi SSW 11.5 mph 18.4 mph N/A   Mostly Cloudy
2:47 PM 55.4 °F 44.6 °F 67% 29.93 in 13.0 mi South 9.2 mph 19.6 mph N/A   Overcast
3:47 PM 53.6 °F 44.6 °F 72% 29.93 in 13.0 mi South 8.1 mph 17.3 mph N/A   Overcast
4:47 PM 53.6 °F 44.6 °F 72% 29.96 in 13.0 mi South 10.4 mph 15.0 mph N/A   Overcast
5:47 PM 53.6 °F 44.6 °F 72% 29.97 in 13.0 mi South 12.7 mph 16.1 mph N/A   Overcast
6:53 PM 51.8 °F 44.6 °F 76% 29.96 in 15.0 mi South 8.1 mph 12.7 mph N/A   Scattered Clouds
7:47 PM 51.8 °F 44.6 °F 76% 29.95 in 20.0 mi South 8.1 mph - N/A   Clear
8:47 PM 51.8 °F 44.6 °F 76% 29.97 in 13.0 mi South 8.1 mph - N/A   Clear
9:15 PM 51.8 °F 44.6 °F 76% 29.95 in 10.0 mi South 6.9 mph - N/A   Clear
9:35 PM 51.8 °F 44.6 °F 76% 29.95 in 10.0 mi South 6.9 mph - N/A   Clear
9:55 PM 50.0 °F 42.8 °F 76% 29.95 in 10.0 mi SSE 5.8 mph - N/A   Clear
10:15 PM 50.0 °F 44.6 °F 82% 29.95 in 10.0 mi South 8.1 mph - N/A   Clear
10:35 PM 50.0 °F 42.8 °F 76% 29.95 in 10.0 mi South 5.8 mph - N/A   Clear
11:35 PM 51.8 °F 42.8 °F 71% 29.96 in 10.0 mi South 8.1 mph - N/A   Clear
11:55 PM 51.8 °F 42.8 °F 71% 29.96 in 10.0 mi South 6.9 mph - N/A   Clear